Torna al catalogo

STARLINK-11544

AttivoComunicazioniVLEO
NORAD 62984·PAYLOAD·🇺🇸 United States

Lanciato Feb 11, 2025 da Cape Canaveral Space Force Station

Loading…

Prossimi Passaggi (prossime 24 ore)

TLE

AggiornatoSource: CelesTrak SupGP

Epoca: Sep 14, 2026, 22:24 UTC

1 62984C 25031D   26257.93381944 -.00042616  00000+0 -33108-3 0  2578
2 62984  43.0002 300.5596 0001515 261.2508 249.0148 15.70853826    18

Traccia STARLINK-11544 in tempo reale con AllMySat

Download on the App Store